Airport Information

KMFR - Rogue Valley Intl Medford Airport

KMFR 171840Z 00000KT 3SM BR OVC005 01/M01 A3008 RMK AO2 T00061006


  • General Information

  • Coordinates: N 42°22'27"/ W 122°52'24"
  • Location: N/A
  • Surveyed Elevation: 1335 MSL

Operations

Flow Name Active Runways Conditions

Green background denotes normal operations.


Common Frequencies

Callsign Frequency Position Name

More at the Document Center


Charts